Location: Jangalapalle
(16.8036°N, 80.6370°E)
Time: 10:13:54
(UTC+00:00)

GPS 2-15 Rocket1 - Pass Details

Date: 05 August 2024
Orbit: 615 x 661 km, 19.8° (Epoch: 13 September)

Event Time Altitude Azimuth Distance (km) Brightness Sun altitude
Rises 13:47:46 0° 257° (WSW) 2,954 7.6 -9.8°
Reaches altitude 10° 13:50:10 10° 257° (WSW) 2,036 6.6 -10.4°
Maximum altitude 13:54:58 88° 171° (S) 641 3.1 -11.4°
Enters shadow 13:59:11 13° 79° (E) 1,813 5.0 -12.4°
